Volver al catálogo

THORAD AGENA D DEB

LostPO
NORAD 42529·DEBRIS·🇺🇸 United States

Lanzado Apr 8, 1970 desde Vandenberg Space Force Base

Loading…

Próximos Pases (próximas 24 horas)

TLE

ObsoletoSource: Space-Track

Época: Sep 11, 2022, 21:18 UTC

1 42529U 70025SK  22254.88788981  .00001818  00000-0  15996-2 0  9998
2 42529  98.6811 130.0081 0211573  97.7832 264.7396 13.76779246446727

Sigue THORAD AGENA D DEB en tiempo real con AllMySat

Download on the App Store